www.pogodaiklimat.ru

Погода и климат >> Архив погоды >> Россия >> Алтайский край >> Шелаболиха


ПОГОДА в Шелаболихе

  • Прогноз погоды в Шелаболихе
  • Монитор погоды в Шелаболихе
  • Климат города

АРХИВ ПОГОДЫ в Шелаболихе

Время (UTC), дата Ветер
(напр.,м/с)
 
Видим.   Явления Облачность Т
(С)
Тd
(С)
f
(%)
Тe
(С)
Тes
(С)
Комфортность P
(гПа)
Po
(гПа)
Тmin
(С)
Tmax
(С)
R
(мм)
R24
(мм)
S
(см)
12 15.11 СВ 2
{7}
50 км ясно -10.6 -13.8 77 -15 -15 1034.6 1012.0 -4.0 0.0
15 15.11 СВ 2 50 км ясно -13.9 -15.9 85 -19 -19 1036.2 1013.3
18 15.11 СВ 2 50 км ясно -15.5 -17.0 88 -21 -21 1035.7 1012.3
21 15.11 СВ 1 50 км ясно -18.5 -20.3 86 -21 -21 1036.6 1013.3
00 16.11 СВ 1
{5}
50 км ясно -19.1 -20.9 86 -22 -22 1037.1 1013.3 -20.3 5
03 16.11 штиль 0 50 км ясно -20.6 -22.9 82 -21 -21 1039.6 1016.0 -22.3
06 16.11 СВ 1 50 км ясно -12.3 -14.7 82 -15 -13 1037.7 1014.5
09 16.11 ЮВ 1 50 км 2 балла -9.5 -13.1 75 -12 -11 1038.6 1016.0
12 16.11 штиль 0
{2}
50 км 3/0
[Ci fib]
-14.4 -16.2 86 -14 -14 1038.2 1015.3 -9.0
15 16.11 ЮЗ 3 50 км ясно -13.8 -15.4 88 -20 -20 1039.0 1016.0
18 16.11 ЮЗ 3 50 км ясно -14.1 -15.9 86 -21 -21 1037.5 1014.2
21 16.11 ЮЗ 3 50 км ясно -14.3 -16.1 86 -21 -21 1037.7 1014.7
00 17.11 Ю 4
{6}
20 км 10/0
[As trans]
-11.6 -12.8 91 -19 -19 1035.3 1012.2 -16.2 5
03 17.11 Ю 2 50 км 7 баллов -8.7 -9.8 92 -13 -13 1035.7 1013.3
06 17.11 Ю 5 50 км 4/0
[Ac As]
-6.2 -8.4 84 -14 -13 1033.0 1010.4
09 17.11 ЮЗ 4 50 км 4 балла -3.9 -8.4 71 -10 -10 1031.2 1009.3
12 17.11 ЮЗ 4
{8}
50 км 10/0
[Cs]
-5.3 -7.7 83 -12 -12 1030.5 1008.1 -3.9
15 17.11 ЮЗ 3 50 км 7 баллов -3.0 -5.3 84 -8 -8 1031.2 1009.3
18 17.11 ЮЗ 5 50 км 9/0
[Ac As]
-1.5 -4.8 78 -8 -8 1029.4 1007.3
21 17.11 ЮЗ 4 50 км ясно -3.3 -5.6 84 -9 -9 1029.9 1008.0
00 18.11 ЮЗ 4
{8}
50 км ясно -4.6 -6.5 87 -11 -11 1028.1 1005.8 -5.4 5
03 18.11 ЮЗ 4 50 км 6 баллов -4.7 -6.4 88 -11 -11 1027.2 1005.3 -6.2
06 18.11 ЮЗ 5
{10}
50 км 8/0
[Ac trans Ci fib]
+0.2 -3.7 75 -6 -5 1024.9 1003.0
09 18.11 Ю 3 50 км 10 баллов +1.1 -3.8 70 -3 -3 1022.7 1001.3
12 18.11 Ю 4
{10}
50 км 6/0
[Ac trans Ci fib]
-1.3 -5.2 75 -7 -7 1021.4 999.5 +1.3
15 18.11 Ю 5 50 км 10 баллов +0.8 -4.0 70 -5 -5 1020.0 998.7
18 18.11 ЮЗ 4 50 км 10/0
[Ci fib]
+0.2 -3.7 75 -5 -5 1018.9 997.2
21 18.11 ЮЗ 4 50 км 10 баллов -0.6 -3.8 79 -6 -6 1020.1 998.7
00 19.11 ЮЗ 4
{10}
20 км слабый ливневой снег 10/8 600 м
[Cb cap Ci fib]
-0.1 -1.5 90 -6 -6 1020.9 999.1 -1.3 0.0 5
03 19.11 ЮЗ 4 4000 м слабый ливневой снег 10 баллов -0.2 -0.8 96 -6 -6 1024.2 1002.7
06 19.11 З 3 10 км слабый снег {ливн. осадки} 10/0
[As op]
+0.2 -0.6 94 -5 -4 1024.6 1002.7
09 19.11 З 5
{10}
50 км в посл. час крупа 10 баллов -1.2 -4.4 79 -7 -7 1028.4 1006.7
12 19.11 З 4
{10}
50 км {ливн. осадки, снег} 9/9 600 м
[Sc]
-3.2 -5.3 85 -9 -9 1030.2 1007.9 +0.5 3
15 19.11 З 4 50 км 10 баллов -3.6 -6.4 81 -10 -10 1032.7 1010.7
18 19.11 ЮЗ 4 10 км слабый снег {ливн. осадки} 10/10 600 м
[Sc]
-4.0 -5.5 89 -10 -10 1032.6 1010.3
21 19.11 ЮЗ 4 4000 м слабый ливневой снег 10 баллов -3.2 -4.3 92 -9 -9 1032.6 1010.7
00 20.11 ЮЗ 5
{8}
4000 м слабый ливневой снег 10/10 600 м
[Cb cap]
-2.7 -3.7 93 -10 -10 1032.1 1009.9 -4.1 1 11
03 20.11 З 4 20 км слабый ливневой снег 10 баллов -2.4 -3.4 93 -9 -9 1033.9 1012.0
06 20.11 З 4 50 км в посл. час ливневой снег 9/4 600 м
[Cb cap Ac cuf]
-1.8 -4.6 81 -8 -7 1034.7 1012.5
09 20.11 З 5 20 км слабый ливневой снег 10 баллов -1.1 -3.3 85 -7 -7 1036.5 1014.7
12 20.11 З 4
{9}
50 км {ливн. осадки} 10/10 600 м
[Cb cap]
-1.9 -4.2 84 -8 -8 1036.7 1014.4 -0.9 0.6
15 20.11 ЮЗ 3 10 км слабый ливневой снег 10 баллов -2.0 -3.3 91 -7 -7 1037.9 1016.0
18 20.11 ЮЗ 5 10 км слабый ливневой снег 10/10 600 м
[Cb cap]
-1.7 -2.9 91 -8 -8 1036.2 1013.9
21 20.11 ЮЗ 4 20 км слабый ливневой снег 10 баллов -1.6 -2.9 91 -8 -8 1036.6 1014.7
00 21.11 ЮЗ 4
{7}
20 км слабый ливневой снег 10/10 600 м
[Cb cap]
-1.6 -2.9 91 -8 -8 1035.8 1013.6 -2.1 0.5 12
03 21.11 З 5 50 км 10 баллов -1.9 -3.3 90 -9 -9 1036.6 1014.7
06 21.11 ЮЗ 6 50 км {ливн. осадки} 10/10 600 м
[Sc]
-1.6 -4.4 81 -9 -9 1036.8 1014.5
09 21.11 ЮЗ 6
{10}
50 км 10 баллов -1.9 -4.7 81 -9 -9 1037.9 1016.0
12 21.11 ЮЗ 6
{11}
50 км 9/9 600 м
[Sc]
-2.7 -6.0 78 -10 -10 1037.5 1015.1 -1.5 0.0
15 21.11 ЮЗ 5
{10}
50 км 10 баллов -2.8 -5.9 79 -9 -9 1038.0 1016.0
18 21.11 ЮЗ 7
{11}
50 км 10 баллов -2.9 -5.9 80 -11 -11 1038.0 1016.0
21 21.11 З 7
{11}
50 км позёмок 10 баллов -3.5 -6.9 77 -11 -11 1036.7 1014.7
00 22.11 З 7-10
{12}
20 км позёмок {метель} 10/10 600 м
[Sc]
-4.1 -7.5 77 -12 -12 1036.5 1014.1 -4.1 12
03 22.11 ЮЗ 6
{12}
50 км 7 баллов -4.7 -8.1 77 -12 -12 1038.2 1016.0 -5.0
06 22.11 З 5
{10}
50 км 10 баллов -4.2 -8.3 73 -11 -11 1038.1 1016.0

 

Местоположение метеостанции Шелаболиха (Алтайский край, Россия): широта 53.42 долгота 82.60 высота над уровнем моря 170 м.

В архиве по умолчанию представлена погода в Шелаболихе за последнюю неделю. Архивные данные за месяц целиком и за предыдущие месяцы, начиная с января 2011 года, Вы можете получить, выбрав интересующий диапазон дат из раскрывающегося списка и нажав кнопку "Ввод!".

Внимание! Время в таблицах - всемирное. Для получения местного времени необходимо прибавить поправку, которая в Шелаболихе равна 7 ч.

Смотрите также архив погоды в соседних городах и на ближайших метеорологических станциях:

Погода в Ребрихе (Алтайский край, Россия) (42 км)
Погода в Сузуне (Новосибирская область, Россия) (43 км)
Погода в Барнауле (Алтайский край, Россия) (61 км)
Погода в Тальменке (Алтайский край, Россия) (78 км)
Погода в Камень-на-Оби (Алтайский край, Россия) (98 км)
Погода в Алейской (Алтайский край, Россия) (101 км)
Погода в Мамонтово (Алтайский край, Россия) (103 км)
Погода в Посевной (Новосибирская область, Россия) (109 км)
Погода в Ордынском (Новосибирская область, Россия) (115 км)
Погода в Дальнем (Новосибирская область, Россия) (119 км)

Пояснения к столбцам:

Ветер - указаны скорость ветра в м/с - средняя за 10 мин, порывы в срок и между сроками (в фигурных скобках) и направление, откуда дует ветер: С - северный, СВ - северо-восточный, В - восточный, ЮВ - юго-восточный, Ю - южный, ЮЗ - юго-западный, З - западный, СЗ - северо-западный.
Видимость - горизонтальная дальность видимости в метрах или километрах. При видимости от 1 до 10 км при отсутствии осадков обычно наблюдается дымка, при ухудшении видимости до 1 км и менее - туман. В сухую погоду видимость может ухудшаться дымом, пылью или мглою.
Явления - указаны атмосферные явления, наблюдавшиеся в срок или в последний час перед сроком; фигурными скобками обозначены явления, наблюдавшиеся между сроками (за 1-3 часа до срока); квадратными скобками обозначены град или гололедные отложения с указанием их диаметра в мм.
Облачность - указаны через наклонную черту общая и нижняя облачность в баллах и высота нижней границы облаков в метрах; квадратными скобками обозначены формы облаков: Ci - перистые, Cs - перисто-слоистые, Cc - перисто-кучевые, Ac - высококучевые, As - высокослоистые, Sc - слоисто-кучевые, Ns - слоисто-дождевые, Cu - кучевые, Cb - кучево-дождевые. Подробнее классификацию облаков см. в Атласе облаков (PDF).
T - Температура воздуха - температура, измеренная на высоте 2 м над землей.
Td - Температура точки росы - температура, при понижении до которой содержащийся в воздухе водяной пар достигнет насыщения.
f - Относительная влажность воздуха - влажноcть воздуха, измеренная на высоте 2 м над землей.
Te - Эффективная температура - температура, которую ощущает одетый по сезону человек в тени. Характеристика душности погоды. При расчете учитывается влияние влажности воздуха и скорости ветра на теплоощущения человека.
Tes - Эффективная температура на солнце - температура, которую ощущает человек, с поправкой на солнечный нагрев. Характеристика знойности погоды. Зависит от высоты солнца над горизонтом, облачности и скорости ветра. Ночью, в пасмурную погоду, а также при ветре 12 м/с и более поправка равна нулю.
P - Атмосферное давление - приведенное к уровню моря атмосферное давление.
Po - Атмосферное давление - измеренное на уровне метеостанции атмосферное давление.
Tmin - Минимальная температура - минимум температуры воздуха на высоте 2 м над землей.
Tmax - Максимальная температура - максимум температуры воздуха на высоте 2 м над землей.
R - Количество осадков - Количество выпавших осадков за период времени, мм. При наведении курсора мыши на число - период времени, за который выпало указанное количество осадков.
R24 - Количество осадков - Количество выпавших осадков за 24 часа, мм.
S - Снежный покров - Высота снежного покрова, см. При наведении курсора мыши на число - состояние снежного покрова и степень покрытия местности в баллах.